カタログに戻る

STARLINK-36688

運用中通信SSO
NORAD 67656·PAYLOAD·🇺🇸 United States

打ち上げ Feb 2, 2026 から Vandenberg Space Force Base

Loading…

次のパス (今後24時間)

TLE

最新Source: CelesTrak SupGP

元期: Sep 14, 2026, 21:06 UTC

1 67656C 26022J   26257.87965278  .00012592  00000+0  39097-3 0  2572
2 67656  97.2846 289.5825 0000927  95.0783 121.7876 15.33427965    15

AllMySatでSTARLINK-36688をリアルタイム追跡

Download on the App Store